{"data":{"norad_id":67287,"epoch":"2026-05-24T11:39:38.345472Z","epoch_age_seconds":119364,"freshness":"FRESH","line1":"1 67287U 25313AR  26144.48586048  .00007806  00000+0  32379-3 0  9991","line2":"2 67287  97.3937 219.7836 0011223  83.7302 276.5214 15.24082799 22365","mean_motion":15.24082799,"eccentricity":0.0011223,"inclination_deg":97.3937,"raan_deg":219.7836,"arg_perigee_deg":83.7302,"mean_anomaly_deg":276.5214,"bstar":0.00032379,"rev_number":2236,"period_min":94.483055707002,"perigee_km":485.82890884047,"apogee_km":501.25307726367,"semimajor_km":6871.6779930521,"source":"CELESTRAK","updated_at":"2026-05-25T13:38:06.855163Z"}}